| time (UTC) | temp F | wind direction | speed MPH | gust MPH | rain 1hr in | rain 24hr in | rain mn in | humidity % | barometer mb |
| 20260506231042 | 60 | 244 | 6.0 | 15.0 | 0.00 | 0.00 | 0.00 | 67 | 1014.5 |
| 20260506230539 | 59 | 257 | 6.0 | 18.0 | 0.00 | 0.00 | 0.00 | 67 | 1014.5 |
| 20260506230037 | 59 | 213 | 9.0 | 18.0 | 0.00 | 0.00 | 0.00 | 67 | 1014.4 |
| 20260506225538 | 59 | 234 | 8.0 | 16.0 | 0.00 | 0.00 | 0.00 | 68 | 1014.4 |
| 20260506225036 | 59 | 280 | 5.0 | 15.0 | 0.00 | 0.00 | 0.00 | 69 | 1014.4 |
| 20260506224537 | 59 | 251 | 7.0 | 15.0 | 0.00 | 0.00 | 0.00 | 70 | 1014.3 |
| 20260506224035 | 58 | 255 | 8.0 | 13.0 | 0.00 | 0.00 | 0.00 | 71 | 1014.4 |
| 20260506223535 | 58 | 243 | 6.0 | 14.0 | 0.00 | 0.00 | 0.00 | 71 | 1014.4 |
| 20260506223037 | 58 | 259 | 7.0 | 14.0 | 0.00 | 0.00 | 0.00 | 72 | 1014.4 |
| 20260506222535 | 58 | 239 | 3.0 | 12.0 | 0.00 | 0.00 | 0.00 | 73 | 1014.4 |
| 20260506222035 | 58 | 271 | 4.0 | 12.0 | 0.00 | 0.00 | 0.00 | 74 | 1014.4 |
| 20260506221534 | 57 | 232 | 4.0 | 14.0 | 0.00 | 0.00 | 0.00 | 74 | 1014.4 |
| 20260506221034 | 57 | 262 | 5.0 | 15.0 | 0.00 | 0.00 | 0.00 | 75 | 1014.3 |
| 20260506220532 | 57 | 247 | 6.0 | 15.0 | 0.00 | 0.00 | 0.00 | 76 | 1014.4 |
| 20260506220036 | 57 | 262 | 7.0 | 14.0 | 0.00 | 0.00 | 0.00 | 77 | 1014.3 |
| 20260506215529 | 56 | 234 | 6.0 | 14.0 | 0.00 | 0.00 | 0.00 | 77 | 1014.2 |
| 20260506215029 | 56 | 296 | 6.0 | 12.0 | 0.00 | 0.00 | 0.00 | 78 | 1014.2 |
| 20260506214528 | 56 | 227 | 4.0 | 14.0 | 0.00 | 0.00 | 0.00 | 79 | 1014.1 |
| 20260506214028 | 56 | 229 | 6.0 | 14.0 | 0.00 | 0.00 | 0.00 | 78 | 1014.1 |
| 20260506213526 | 56 | 233 | 6.0 | 12.0 | 0.00 | 0.00 | 0.00 | 79 | 1014.1 |
| 20260506213026 | 56 | 230 | 5.0 | 15.0 | 0.00 | 0.00 | 0.00 | 79 | 1013.9 |
| 20260506212525 | 56 | 360 | 8.0 | 16.0 | 0.00 | 0.00 | 0.00 | 79 | 1013.8 |
| 20260506212024 | 56 | 230 | 9.0 | 16.0 | 0.00 | 0.00 | 0.00 | 81 | 1013.7 |
| 20260506211522 | 56 | 221 | 7.0 | 13.0 | 0.00 | 0.00 | 0.00 | 82 | 1013.6 |
| 20260506211020 | 56 | 239 | 5.0 | 14.0 | 0.00 | 0.00 | 0.00 | 84 | 1013.6 |
| 20260506210522 | 55 | 275 | 8.0 | 14.0 | 0.00 | 0.00 | 0.00 | 86 | 1013.5 |
| 20260506210019 | 54 | 263 | 6.0 | 11.0 | 0.00 | 0.00 | 0.00 | 86 | 1013.6 |
| 20260506205516 | 54 | 294 | 3.0 | 7.0 | 0.00 | 0.00 | 0.00 | 86 | 1013.6 |
| 20260506205014 | 54 | 281 | 2.0 | 6.0 | 0.00 | 0.00 | 0.00 | 86 | 1013.6 |
| 20260506204512 | 54 | 284 | 2.0 | 6.0 | 0.00 | 0.00 | 0.00 | 86 | 1013.5 |
| 20260506204010 | 54 | 273 | 3.0 | 9.0 | 0.00 | 0.00 | 0.00 | 86 | 1013.4 |
| 20260506203510 | 54 | 294 | 4.0 | 10.0 | 0.00 | 0.00 | 0.00 | 86 | 1013.3 |
| 20260506203010 | 54 | 264 | 4.0 | 10.0 | 0.00 | 0.00 | 0.00 | 86 | 1013.2 |
| 20260506202511 | 54 | 287 | 2.0 | 9.0 | 0.00 | 0.00 | 0.00 | 87 | 1013.0 |
| 20260506202007 | 54 | 302 | 3.0 | 9.0 | 0.00 | 0.00 | 0.00 | 87 | 1012.9 |
| 20260506201509 | 54 | 257 | 3.0 | 9.0 | 0.00 | 0.00 | 0.00 | 88 | 1013.1 |
| 20260506201006 | 54 | 263 | 3.0 | 10.0 | 0.00 | 0.00 | 0.00 | 89 | 1013.1 |
| 20260506200505 | 53 | 239 | 3.0 | 10.0 | 0.00 | 0.00 | 0.00 | 89 | 1012.9 |
| 20260506200008 | 53 | 294 | 0.0 | 3.0 | 0.00 | 0.00 | 0.00 | 89 | 1012.8 |
| 20260506195504 | 53 | 45 | 0.0 | 2.0 | 0.00 | 0.00 | 0.00 | 88 | 1012.7 |
| 20260506195003 | 54 | 45 | 1.0 | 4.0 | 0.00 | 0.00 | 0.00 | 88 | 1012.7 |
| 20260506194502 | 54 | 323 | 0.0 | 4.0 | 0.00 | 0.00 | 0.00 | 88 | 1012.6 |
| 20260506194001 | 54 | 299 | 0.0 | 7.0 | 0.00 | 0.00 | 0.00 | 88 | 1012.7 |
| 20260506193501 | 54 | 306 | 2.0 | 7.0 | 0.00 | 0.00 | 0.00 | 88 | 1012.6 |
| 20260506193002 | 54 | 289 | 2.0 | 7.0 | 0.00 | 0.00 | 0.00 | 88 | 1012.5 |
| 20260506192600 | 54 | 273 | 3.0 | 7.0 | 0.00 | 0.00 | 0.00 | 89 | 1012.4 |
| 20260506192100 | 54 | 277 | 3.0 | 8.0 | 0.00 | 0.00 | 0.00 | 89 | 1012.3 |
| 20260506191600 | 54 | 296 | 3.0 | 8.0 | 0.00 | 0.00 | 0.00 | 89 | 1012.4 |
| 20260506191058 | 55 | 252 | 2.0 | 8.0 | 0.00 | 0.00 | 0.00 | 89 | 1012.2 |
| 20260506190559 | 55 | 265 | 2.0 | 8.0 | 0.00 | 0.00 | 0.00 | 89 | 1012.3 |
| 20260506190057 | 55 | 273 | 4.0 | 8.0 | 0.00 | 0.00 | 0.00 | 90 | 1012.4 |
| 20260506185555 | 55 | 271 | 2.0 | 9.0 | 0.00 | 0.00 | 0.00 | 90 | 1012.4 |
| 20260506185055 | 55 | 293 | 4.0 | 10.0 | 0.00 | 0.00 | 0.00 | 90 | 1012.5 |
| 20260506184558 | 55 | 281 | 5.0 | 10.0 | 0.00 | 0.00 | 0.00 | 90 | 1012.6 |
| 20260506184055 | 56 | 290 | 5.0 | 10.0 | 0.00 | 0.00 | 0.00 | 90 | 1012.5 |
| 20260506183555 | 56 | 253 | 4.0 | 9.0 | 0.00 | 0.00 | 0.00 | 91 | 1012.5 |
| 20260506183053 | 56 | 284 | 2.0 | 9.0 | 0.00 | 0.00 | 0.00 | 91 | 1012.5 |
| 20260506182554 | 56 | 295 | 3.0 | 9.0 | 0.00 | 0.00 | 0.00 | 92 | 1012.5 |
| 20260506182049 | 57 | 277 | 3.0 | 9.0 | 0.00 | 0.00 | 0.00 | 92 | 1012.5 |
| 20260506181549 | 57 | 275 | 4.0 | 9.0 | 0.00 | 0.00 | 0.00 | 92 | 1012.5 |
| 20260506181046 | 57 | 250 | 3.0 | 11.0 | 0.00 | 0.00 | 0.00 | 92 | 1012.5 |
| 20260506180545 | 58 | 265 | 5.0 | 11.0 | 0.00 | 0.00 | 0.00 | 92 | 1012.5 |
| 20260506180045 | 58 | 246 | 6.0 | 11.0 | 0.00 | 0.00 | 0.00 | 92 | 1012.4 |
| 20260506175544 | 58 | 271 | 7.0 | 11.0 | 0.00 | 0.00 | 0.00 | 93 | 1012.4 |
| 20260506175042 | 58 | 268 | 5.0 | 10.0 | 0.00 | 0.00 | 0.00 | 92 | 1012.4 |
| 20260506174542 | 58 | 302 | 5.0 | 10.0 | 0.00 | 0.00 | 0.00 | 92 | 1012.4 |
| 20260506174043 | 59 | 259 | 5.0 | 11.0 | 0.00 | 0.00 | 0.00 | 92 | 1012.4 |
| 20260506173542 | 59 | 248 | 5.0 | 11.0 | 0.00 | 0.00 | 0.00 | 92 | 1012.3 |
| 20260506173048 | 59 | 259 | 6.0 | 10.0 | 0.00 | 0.00 | 0.00 | 92 | 1012.4 |
| 20260506172537 | 60 | 290 | 5.0 | 10.0 | 0.00 | 0.00 | 0.00 | 91 | 1012.4 |
| 20260506172036 | 60 | 286 | 5.0 | 10.0 | 0.00 | 0.00 | 0.00 | 91 | 1012.4 |
| 20260506171549 | 60 | 252 | 6.0 | 10.0 | 0.00 | 0.00 | 0.00 | 91 | 1012.4 |
| 20260506171035 | 60 | 284 | 5.0 | 10.0 | 0.00 | 0.00 | 0.00 | 91 | 1012.4 |
| 20260506170533 | 60 | 257 | 4.0 | 12.0 | 0.00 | 0.00 | 0.00 | 91 | 1012.5 |
| 20260506170033 | 60 | 220 | 6.0 | 12.0 | 0.00 | 0.00 | 0.00 | 91 | 1012.6 |
| 20260506165536 | 61 | 288 | 5.0 | 9.0 | 0.00 | 0.00 | 0.00 | 90 | 1012.6 |
| 20260506165033 | 61 | 258 | 5.0 | 10.0 | 0.00 | 0.00 | 0.00 | 90 | 1012.7 |
| 20260506164532 | 61 | 297 | 6.0 | 10.0 | 0.00 | 0.00 | 0.00 | 89 | 1012.7 |
| 20260506164031 | 62 | 277 | 6.0 | 12.0 | 0.00 | 0.00 | 0.00 | 89 | 1012.7 |
| 20260506163532 | 62 | 261 | 6.0 | 12.0 | 0.00 | 0.00 | 0.00 | 89 | 1012.7 |
| 20260506163046 | 62 | 239 | 6.0 | 11.0 | 0.00 | 0.00 | 0.00 | 89 | 1012.8 |
| 20260506162532 | 62 | 301 | 4.0 | 10.0 | 0.00 | 0.00 | 0.00 | 90 | 1012.8 |
| 20260506162033 | 61 | 253 | 5.0 | 10.0 | 0.00 | 0.00 | 0.00 | 90 | 1012.8 |
| 20260506161530 | 61 | 247 | 4.0 | 9.0 | 0.00 | 0.00 | 0.00 | 90 | 1012.9 |
| 20260506161027 | 61 | 260 | 3.0 | 9.0 | 0.00 | 0.00 | 0.00 | 91 | 1012.9 |
| 20260506160527 | 61 | 233 | 5.0 | 8.0 | 0.00 | 0.00 | 0.00 | 92 | 1012.9 |
| 20260506160027 | 61 | 260 | 2.0 | 5.0 | 0.00 | 0.00 | 0.00 | 92 | 1013.0 |
| 20260506155524 | 60 | 256 | 0.0 | 5.0 | 0.00 | 0.00 | 0.00 | 92 | 1013.1 |
| 20260506155025 | 60 | 277 | 0.0 | 2.0 | 0.00 | 0.00 | 0.00 | 91 | 1013.0 |
| 20260506154531 | 61 | 268 | 1.0 | 3.0 | 0.00 | 0.00 | 0.00 | 91 | 1013.0 |
| 20260506154026 | 61 | 293 | 0.0 | 4.0 | 0.00 | 0.00 | 0.00 | 91 | 1013.0 |
| 20260506153524 | 61 | 275 | 1.0 | 8.0 | 0.00 | 0.00 | 0.00 | 91 | 1013.0 |
| 20260506153023 | 61 | 254 | 0.0 | 8.0 | 0.00 | 0.00 | 0.00 | 91 | 1013.1 |
| 20260506152525 | 61 | 240 | 2.0 | 8.0 | 0.00 | 0.00 | 0.00 | 92 | 1013.1 |
| 20260506152022 | 61 | 257 | 3.0 | 7.0 | 0.00 | 0.00 | 0.00 | 92 | 1013.1 |
| 20260506151522 | 60 | 283 | 2.0 | 4.0 | 0.00 | 0.00 | 0.00 | 92 | 1013.2 |
| 20260506151024 | 61 | 301 | 2.0 | 5.0 | 0.00 | 0.00 | 0.00 | 92 | 1013.2 |
| 20260506150520 | 61 | 287 | 2.0 | 5.0 | 0.00 | 0.00 | 0.00 | 92 | 1013.2 |
| 20260506150020 | 61 | 277 | 2.0 | 4.0 | 0.00 | 0.00 | 0.00 | 92 | 1013.2 |
| 20260506145520 | 61 | 293 | 2.0 | 4.0 | 0.00 | 0.00 | 0.00 | 92 | 1013.2 |
| 20260506145019 | 61 | 320 | 2.0 | 5.0 | 0.00 | 0.00 | 0.00 | 92 | 1013.3 |
| 20260506144518 | 61 | 289 | 2.0 | 5.0 | 0.00 | 0.00 | 0.00 | 93 | 1013.3 |
| 20260506144018 | 61 | 296 | 2.0 | 6.0 | 0.00 | 0.00 | 0.00 | 93 | 1013.4 |
| 20260506143519 | 61 | 284 | 1.0 | 5.0 | 0.00 | 0.00 | 0.00 | 93 | 1013.4 |
| 20260506143018 | 61 | 279 | 1.0 | 5.0 | 0.00 | 0.00 | 0.00 | 93 | 1013.4 |
| 20260506142515 | 60 | 297 | 2.0 | 5.0 | 0.00 | 0.00 | 0.00 | 93 | 1013.4 |
| 20260506142016 | 60 | 297 | 2.0 | 4.0 | 0.00 | 0.00 | 0.00 | 93 | 1013.5 |
| 20260506141515 | 60 | 271 | 0.0 | 3.0 | 0.00 | 0.00 | 0.00 | 93 | 1013.6 |
| 20260506141016 | 60 | 276 | 1.0 | 3.0 | 0.00 | 0.00 | 0.00 | 93 | 1013.6 |
| 20260506140520 | 60 | 269 | 0.0 | 1.0 | 0.00 | 0.00 | 0.00 | 92 | 1013.6 |
| 20260506140012 | 60 | 269 | 0.0 | 2.0 | 0.00 | 0.00 | 0.00 | 92 | 1013.6 |
| 20260506135511 | 60 | 269 | 0.0 | 2.0 | 0.00 | 0.00 | 0.00 | 92 | 1013.7 |
| 20260506135012 | 60 | 269 | 0.0 | 2.0 | 0.00 | 0.00 | 0.00 | 92 | 1013.7 |
| 20260506134513 | 60 | 268 | 0.0 | 2.0 | 0.00 | 0.00 | 0.00 | 91 | 1013.7 |
| 20260506134011 | 60 | 265 | 0.0 | 2.0 | 0.00 | 0.00 | 0.00 | 91 | 1013.7 |
| 20260506133511 | 60 | 264 | 0.0 | 0.0 | 0.00 | 0.00 | 0.00 | 91 | 1013.8 |
| 20260506133011 | 60 | 264 | 0.0 | 1.0 | 0.00 | 0.00 | 0.00 | 91 | 1013.8 |
| 20260506132509 | 61 | 264 | 0.0 | 1.0 | 0.00 | 0.00 | 0.00 | 91 | 1013.8 |
| 20260506132013 | 61 | 264 | 0.0 | 1.0 | 0.00 | 0.00 | 0.00 | 91 | 1013.9 |
| 20260506131510 | 61 | 264 | 0.0 | 1.0 | 0.00 | 0.00 | 0.00 | 91 | 1013.9 |
| 20260506131008 | 61 | 264 | 0.0 | 1.0 | 0.00 | 0.00 | 0.00 | 91 | 1013.9 |
| 20260506130511 | 61 | 264 | 0.0 | 1.0 | 0.00 | 0.00 | 0.00 | 91 | 1014.0 |
| 20260506130008 | 61 | 264 | 0.0 | 2.0 | 0.00 | 0.00 | 0.00 | 91 | 1014.1 |
| 20260506125505 | 61 | 264 | 0.0 | 2.0 | 0.00 | 0.00 | 0.00 | 92 | 1014.2 |
| 20260506125009 | 61 | 264 | 0.0 | 2.0 | 0.00 | 0.00 | 0.00 | 92 | 1014.3 |
| 20260506124505 | 61 | 262 | 0.0 | 0.0 | 0.00 | 0.00 | 0.00 | 91 | 1014.4 |
| 20260506124004 | 61 | 262 | 0.0 | 0.0 | 0.00 | 0.00 | 0.00 | 91 | 1014.4 |
| 20260506123504 | 61 | 262 | 0.0 | 2.0 | 0.00 | 0.00 | 0.00 | 91 | 1014.5 |
| 20260506123004 | 61 | 262 | 0.0 | 2.0 | 0.00 | 0.00 | 0.00 | 90 | 1014.6 |
| 20260506122505 | 61 | 262 | 0.0 | 1.0 | 0.00 | 0.00 | 0.00 | 90 | 1014.6 |
| 20260506122001 | 61 | 262 | 0.0 | 1.0 | 0.00 | 0.00 | 0.00 | 89 | 1014.7 |
| 20260506121500 | 62 | 262 | 0.0 | 3.0 | 0.00 | 0.00 | 0.00 | 88 | 1014.8 |
| 20260506121100 | 62 | 262 | 1.0 | 3.0 | 0.00 | 0.00 | 0.00 | 88 | 1014.8 |
| 20260506120600 | 62 | 298 | 0.0 | 0.0 | 0.00 | 0.00 | 0.00 | 88 | 1014.9 |
| 20260506120111 | 62 | 298 | 0.0 | 0.0 | 0.00 | 0.00 | 0.00 | 88 | 1014.9 |
| 20260506115600 | 62 | 298 | 0.0 | 0.0 | 0.00 | 0.00 | 0.00 | 88 | 1014.9 |
| 20260506115058 | 62 | 298 | 0.0 | 0.0 | 0.00 | 0.00 | 0.00 | 88 | 1015.0 |
| 20260506114623 | 62 | 298 | 0.0 | 0.0 | 0.00 | 0.00 | 0.00 | 88 | 1015.0 |
| 20260506114058 | 63 | 298 | 0.0 | 1.0 | 0.00 | 0.00 | 0.00 | 87 | 1015.1 |
| 20260506113557 | 63 | 298 | 0.0 | 1.0 | 0.00 | 0.00 | 0.00 | 87 | 1015.2 |
| 20260506113058 | 63 | 298 | 0.0 | 2.0 | 0.00 | 0.00 | 0.00 | 87 | 1015.2 |
| 20260506112559 | 63 | 298 | 0.0 | 2.0 | 0.00 | 0.00 | 0.00 | 87 | 1015.2 |
| 20260506112056 | 63 | 298 | 0.0 | 2.0 | 0.00 | 0.00 | 0.00 | 88 | 1015.2 |
| 20260506111557 | 63 | 309 | 0.0 | 2.0 | 0.00 | 0.00 | 0.00 | 88 | 1015.3 |
| 20260506111055 | 63 | 310 | 0.0 | 1.0 | 0.00 | 0.00 | 0.00 | 88 | 1015.4 |
| 20260506110555 | 63 | 310 | 0.0 | 0.0 | 0.00 | 0.00 | 0.00 | 88 | 1015.5 |
| 20260506110055 | 63 | 310 | 0.0 | 0.0 | 0.00 | 0.00 | 0.00 | 88 | 1015.5 |
| 20260506105558 | 63 | 310 | 0.0 | 1.0 | 0.00 | 0.00 | 0.00 | 88 | 1015.6 |
| 20260506105054 | 63 | 310 | 0.0 | 2.0 | 0.00 | 0.00 | 0.00 | 87 | 1015.7 |
| 20260506104554 | 63 | 310 | 0.0 | 2.0 | 0.00 | 0.00 | 0.00 | 87 | 1015.6 |
| 20260506104054 | 63 | 305 | 0.0 | 4.0 | 0.00 | 0.00 | 0.00 | 87 | 1015.7 |
| 20260506103554 | 63 | 305 | 1.0 | 4.0 | 0.00 | 0.00 | 0.00 | 86 | 1015.7 |
| 20260506103054 | 63 | 9 | 0.0 | 2.0 | 0.00 | 0.00 | 0.00 | 86 | 1015.8 |
| 20260506102554 | 63 | 103 | 1.0 | 2.0 | 0.00 | 0.00 | 0.00 | 86 | 1015.8 |
| 20260506102055 | 63 | 103 | 0.0 | 0.0 | 0.00 | 0.00 | 0.00 | 86 | 1015.8 |
| 20260506101554 | 63 | 103 | 0.0 | 0.0 | 0.00 | 0.00 | 0.00 | 86 | 1015.8 |
| 20260506101054 | 64 | 103 | 0.0 | 1.0 | 0.00 | 0.00 | 0.00 | 86 | 1015.8 |
| 20260506100553 | 64 | 103 | 0.0 | 2.0 | 0.00 | 0.00 | 0.00 | 86 | 1015.8 |
| 20260506100053 | 64 | 103 | 1.0 | 2.0 | 0.00 | 0.00 | 0.00 | 86 | 1015.8 |
| 20260506095554 | 64 | 103 | 0.0 | 2.0 | 0.00 | 0.00 | 0.00 | 86 | 1015.8 |
| 20260506095053 | 64 | 103 | 0.0 | 1.0 | 0.00 | 0.00 | 0.00 | 86 | 1015.8 |
| 20260506094553 | 64 | 103 | 0.0 | 0.0 | 0.00 | 0.00 | 0.00 | 86 | 1015.8 |
| 20260506094052 | 64 | 103 | 0.0 | 0.0 | 0.00 | 0.00 | 0.00 | 86 | 1015.8 |
| 20260506093554 | 64 | 103 | 0.0 | 0.0 | 0.00 | 0.00 | 0.00 | 85 | 1015.7 |
| 20260506093108 | 64 | 103 | 0.0 | 0.0 | 0.00 | 0.00 | 0.00 | 85 | 1015.8 |
| 20260506092552 | 64 | 103 | 0.0 | 0.0 | 0.00 | 0.00 | 0.00 | 85 | 1015.8 |
| 20260506092053 | 64 | 103 | 0.0 | 0.0 | 0.00 | 0.00 | 0.00 | 85 | 1015.7 |
| 20260506091551 | 64 | 103 | 0.0 | 0.0 | 0.00 | 0.00 | 0.00 | 85 | 1015.7 |
| 20260506091050 | 64 | 103 | 0.0 | 0.0 | 0.00 | 0.00 | 0.00 | 86 | 1015.8 |
| 20260506090550 | 63 | 103 | 0.0 | 0.0 | 0.00 | 0.00 | 0.00 | 86 | 1015.7 |
| 20260506090057 | 63 | 103 | 0.0 | 1.0 | 0.00 | 0.00 | 0.00 | 86 | 1015.7 |
| 20260506085551 | 63 | 103 | 0.0 | 2.0 | 0.00 | 0.00 | 0.00 | 86 | 1015.8 |
| 20260506085051 | 63 | 103 | 0.0 | 2.0 | 0.00 | 0.00 | 0.00 | 86 | 1015.8 |
| 20260506084551 | 63 | 103 | 0.0 | 0.0 | 0.00 | 0.00 | 0.00 | 86 | 1015.8 |
| 20260506084051 | 63 | 103 | 0.0 | 0.0 | 0.00 | 0.00 | 0.00 | 86 | 1015.8 |
| 20260506083550 | 63 | 103 | 0.0 | 0.0 | 0.00 | 0.00 | 0.00 | 86 | 1015.8 |
| 20260506083052 | 63 | 103 | 0.0 | 0.0 | 0.00 | 0.00 | 0.00 | 86 | 1015.7 |
| 20260506082554 | 63 | 103 | 0.0 | 0.0 | 0.00 | 0.00 | 0.00 | 86 | 1015.7 |
| 20260506082050 | 63 | 103 | 0.0 | 0.0 | 0.00 | 0.00 | 0.00 | 86 | 1015.7 |
| 20260506081550 | 63 | 103 | 0.0 | 0.0 | 0.00 | 0.00 | 0.00 | 86 | 1015.7 |
| 20260506081049 | 63 | 103 | 0.0 | 0.0 | 0.00 | 0.00 | 0.00 | 86 | 1015.7 |
| 20260506080549 | 63 | 103 | 0.0 | 0.0 | 0.00 | 0.00 | 0.00 | 86 | 1015.7 |
| 20260506073053 | 65 | 103 | 0.0 | 0.0 | 0.00 | 0.00 | 0.00 | 84 | 1015.4 |
| 20260506072551 | 65 | 103 | 0.0 | 0.0 | 0.00 | 0.00 | 0.00 | 84 | 1015.5 |
| 20260506072052 | 65 | 103 | 0.0 | 1.0 | 0.00 | 0.00 | 0.00 | 83 | 1015.5 |
| 20260506071547 | 65 | 103 | 0.0 | 1.0 | 0.00 | 0.00 | 0.00 | 83 | 1015.5 |
| 20260506071047 | 65 | 103 | 0.0 | 0.0 | 0.00 | 0.00 | 0.00 | 83 | 1015.4 |
| 20260506070546 | 66 | 103 | 0.0 | 1.0 | 0.00 | 0.00 | 0.00 | 82 | 1015.4 |
| 20260506062045 | 67 | 92 | 1.0 | 6.0 | 0.00 | 0.00 | 0.00 | 79 | 1015.4 |
| 20260506061557 | 67 | 84 | 2.0 | 6.0 | 0.00 | 0.00 | 0.00 | 79 | 1015.5 |
| 20260506061044 | 67 | 81 | 1.0 | 6.0 | 0.00 | 0.00 | 0.00 | 78 | 1015.5 |
| 20260506060545 | 68 | 82 | 1.0 | 3.0 | 0.00 | 0.00 | 0.00 | 78 | 1015.6 |
| 20260506051040 | 69 | 93 | 2.0 | 8.0 | 0.00 | 0.00 | 0.00 | 76 | 1015.6 |
| 20260506050540 | 69 | 65 | 1.0 | 5.0 | 0.00 | 0.00 | 0.00 | 76 | 1015.7 |
| 20260506045042 | 69 | 59 | 1.0 | 5.0 | 0.00 | 0.00 | 0.00 | 76 | 1015.9 |
| 20260506044539 | 69 | 105 | 1.0 | 5.0 | 0.00 | 0.00 | 0.00 | 76 | 1016.0 |
| 20260506044038 | 69 | 98 | 2.0 | 8.0 | 0.00 | 0.00 | 0.00 | 75 | 1016.0 |
| 20260506043538 | 70 | 80 | 3.0 | 8.0 | 0.00 | 0.00 | 0.00 | 75 | 1016.0 |
| 20260506043037 | 70 | 82 | 1.0 | 5.0 | 0.00 | 0.00 | 0.00 | 74 | 1016.0 |
| 20260506042537 | 70 | 84 | 2.0 | 5.0 | 0.00 | 0.00 | 0.00 | 74 | 1016.1 |
| 20260506042037 | 70 | 133 | 2.0 | 6.0 | 0.00 | 0.00 | 0.00 | 75 | 1016.1 |
| 20260506041536 | 70 | 113 | 1.0 | 7.0 | 0.00 | 0.00 | 0.00 | 74 | 1016.1 |
| 20260506041034 | 70 | 96 | 2.0 | 7.0 | 0.00 | 0.00 | 0.00 | 74 | 1016.1 |
| 20260506040538 | 70 | 96 | 2.0 | 7.0 | 0.00 | 0.00 | 0.00 | 74 | 1016.2 |
| 20260506040034 | 70 | 106 | 2.0 | 7.0 | 0.00 | 0.00 | 0.00 | 74 | 1016.2 |
| 20260506035533 | 70 | 97 | 3.0 | 7.0 | 0.00 | 0.00 | 0.00 | 74 | 1016.3 |
| 20260506035033 | 70 | 75 | 2.0 | 6.0 | 0.00 | 0.00 | 0.00 | 73 | 1016.4 |
| 20260506034533 | 70 | 77 | 1.0 | 7.0 | 0.00 | 0.00 | 0.00 | 73 | 1016.4 |
| 20260506034132 | 70 | 75 | 2.0 | 7.0 | 0.00 | 0.00 | 0.00 | 73 | 1016.5 |
| 20260506033530 | 71 | 91 | 2.0 | 7.0 | 0.00 | 0.00 | 0.00 | 73 | 1016.6 |
| 20260506033034 | 71 | 105 | 3.0 | 7.0 | 0.00 | 0.00 | 0.00 | 72 | 1016.7 |
| 20260506032529 | 71 | 67 | 2.0 | 6.0 | 0.00 | 0.00 | 0.00 | 73 | 1016.7 |
| 20260506032030 | 71 | 74 | 2.0 | 6.0 | 0.00 | 0.00 | 0.00 | 73 | 1016.8 |
| 20260506031528 | 71 | 170 | 2.0 | 6.0 | 0.00 | 0.00 | 0.00 | 72 | 1016.8 |
| 20260506031025 | 71 | 113 | 2.0 | 7.0 | 0.00 | 0.00 | 0.00 | 73 | 1016.8 |
| 20260506030529 | 70 | 83 | 2.0 | 7.0 | 0.00 | 0.00 | 0.00 | 74 | 1016.9 |
| 20260506030024 | 69 | 123 | 1.0 | 7.0 | 0.00 | 0.00 | 0.00 | 76 | 1017.0 |
| 20260506025526 | 69 | 88 | 3.0 | 7.0 | 0.00 | 0.00 | 0.00 | 75 | 1017.1 |
| 20260506025022 | 69 | 118 | 2.0 | 6.0 | 0.00 | 0.00 | 0.00 | 76 | 1017.1 |
| 20260506024523 | 69 | 123 | 2.0 | 7.0 | 0.00 | 0.00 | 0.00 | 76 | 1017.1 |
| 20260506024024 | 69 | 111 | 2.0 | 4.0 | 0.00 | 0.00 | 0.00 | 74 | 1017.2 |
| 20260506023522 | 69 | 119 | 2.0 | 5.0 | 0.00 | 0.00 | 0.00 | 73 | 1017.3 |
| 20260506023022 | 70 | 78 | 1.0 | 8.0 | 0.00 | 0.00 | 0.00 | 72 | 1017.4 |
| 20260506022520 | 70 | 92 | 2.0 | 8.0 | 0.00 | 0.00 | 0.00 | 71 | 1017.5 |
| 20260506022022 | 70 | 69 | 1.0 | 4.0 | 0.00 | 0.00 | 0.00 | 71 | 1017.5 |
| 20260506021519 | 70 | 210 | 1.0 | 4.0 | 0.00 | 0.00 | 0.00 | 71 | 1017.6 |
| 20260506021017 | 70 | 148 | 1.0 | 8.0 | 0.00 | 0.00 | 0.00 | 72 | 1017.7 |
| 20260506020516 | 69 | 83 | 3.0 | 8.0 | 0.00 | 0.00 | 0.00 | 72 | 1017.7 |
| 20260506020030 | 69 | 76 | 1.0 | 6.0 | 0.00 | 0.00 | 0.00 | 73 | 1017.9 |
| 20260506015515 | 69 | 68 | 1.0 | 7.0 | 0.00 | 0.00 | 0.00 | 71 | 1018.0 |
| 20260506015018 | 69 | 84 | 0.0 | 3.0 | 0.00 | 0.00 | 0.00 | 70 | 1018.1 |
| 20260506014514 | 70 | 76 | 1.0 | 6.0 | 0.00 | 0.00 | 0.00 | 69 | 1018.2 |
| 20260506014012 | 70 | 88 | 1.0 | 4.0 | 0.00 | 0.00 | 0.00 | 68 | 1018.3 |
| 20260506013514 | 71 | 111 | 0.0 | 4.0 | 0.00 | 0.00 | 0.00 | 68 | 1018.4 |
| 20260506013010 | 70 | 121 | 1.0 | 4.0 | 0.00 | 0.00 | 0.00 | 68 | 1018.4 |
| 20260506012511 | 70 | 202 | 1.0 | 5.0 | 0.00 | 0.00 | 0.00 | 68 | 1018.5 |
| 20260506012009 | 70 | 168 | 1.0 | 6.0 | 0.00 | 0.00 | 0.00 | 69 | 1018.6 |
| 20260506011507 | 69 | 95 | 1.0 | 6.0 | 0.00 | 0.00 | 0.00 | 69 | 1018.7 |
| 20260506011007 | 69 | 70 | 1.0 | 4.0 | 0.00 | 0.00 | 0.00 | 70 | 1018.9 |
| 20260506010505 | 69 | 149 | 1.0 | 7.0 | 0.00 | 0.00 | 0.00 | 70 | 1018.9 |
| 20260506010004 | 69 | 44 | 2.0 | 7.0 | 0.00 | 0.00 | 0.00 | 70 | 1019.0 |
| 20260506005502 | 69 | 111 | 2.0 | 6.0 | 0.00 | 0.00 | 0.00 | 69 | 1019.0 |
| 20260506005002 | 69 | 151 | 1.0 | 4.0 | 0.00 | 0.00 | 0.00 | 71 | 1019.2 |
| 20260506004501 | 69 | 100 | 1.0 | 5.0 | 0.00 | 0.00 | 0.00 | 70 | 1019.2 |
| 20260506004001 | 69 | 78 | 2.0 | 5.0 | 0.00 | 0.00 | 0.00 | 70 | 1019.2 |
| 20260506003600 | 69 | 120 | 1.0 | 4.0 | 0.00 | 0.00 | 0.00 | 68 | 1019.2 |
| 20260506003059 | 69 | 153 | 1.0 | 3.0 | 0.00 | 0.00 | 0.00 | 68 | 1019.2 |
| 20260506002558 | 68 | 152 | 1.0 | 3.0 | 0.00 | 0.00 | 0.00 | 69 | 1019.3 |
| 20260506002056 | 68 | 175 | 1.0 | 4.0 | 0.00 | 0.00 | 0.00 | 70 | 1019.3 |
| 20260506001606 | 68 | 109 | 1.0 | 4.0 | 0.00 | 0.00 | 0.00 | 68 | 1019.4 |
| 20260506001055 | 67 | 209 | 1.0 | 4.0 | 0.00 | 0.00 | 0.00 | 68 | 1019.5 |
| 20260506000555 | 67 | 217 | 1.0 | 4.0 | 0.00 | 0.00 | 0.00 | 68 | 1019.5 |
| 20260506000118 | 67 | 153 | 0.0 | 3.0 | 0.00 | 0.00 | 0.00 | 68 | 1019.5 |
| 20260505235550 | 67 | 107 | 0.0 | 4.0 | 0.00 | 0.00 | 0.00 | 69 | 1019.5 |
| 20260505235049 | 66 | 165 | 1.0 | 4.0 | 0.00 | 0.00 | 0.00 | 69 | 1019.5 |
| 20260505234548 | 66 | 146 | 1.0 | 5.0 | 0.00 | 0.00 | 0.00 | 70 | 1019.6 |
| 20260505234048 | 65 | 209 | 2.0 | 5.0 | 0.00 | 0.00 | 0.00 | 71 | 1019.5 |
| 20260505233544 | 65 | 135 | 2.0 | 6.0 | 0.00 | 0.00 | 0.00 | 71 | 1019.4 |
| 20260505233050 | 65 | 163 | 1.0 | 6.0 | 0.00 | 0.00 | 0.00 | 73 | 1019.5 |
| 20260505232545 | 64 | 134 | 1.0 | 6.0 | 0.00 | 0.00 | 0.00 | 72 | 1019.5 |
| 20260505232042 | 64 | 211 | 2.0 | 4.0 | 0.00 | 0.00 | 0.00 | 72 | 1019.6 |
| 20260505231550 | 64 | 146 | 2.0 | 4.0 | 0.00 | 0.00 | 0.00 | 72 | 1019.6 |